Meteo pe oră la Dzhuryntsi

Astăzi, 1 Octombrie, Joi

Timp Temperatura Precipitaţii Vânt Presiune Umiditate
00:00 +14°C° 1.3 mm 2 m/s 729 mmHg 93%
01:00 +14°C° 1.3 mm 1 m/s 729 mmHg 94%
02:00 +13°C° 0 mm 1 m/s 729 mmHg 92%
03:00 +13°C° 0.6 mm 2 m/s 729 mmHg 91%
04:00 +12°C° 0.6 mm 3 m/s 729 mmHg 89%
05:00 +12°C° 0.6 mm 4 m/s 730 mmHg 87%
06:00 +12°C° 0.1 mm 5 m/s 730 mmHg 83%
07:00 +12°C° 0.1 mm 5 m/s 731 mmHg 79%
08:00 +11°C° 0.1 mm 6 m/s 731 mmHg 74%
09:00 +14°C° 0 mm 6 m/s 732 mmHg 68%
10:00 +16°C° 0 mm 6 m/s 732 mmHg 62%
11:00 +17°C° 0 mm 6 m/s 732 mmHg 55%
12:00 +17°C° 0.4 mm 6 m/s 732 mmHg 58%
13:00 +19°C° 0.4 mm 6 m/s 732 mmHg 60%
14:00 +19°C° 0.4 mm 6 m/s 732 mmHg 63%
15:00 +17°C° 1.2 mm 5 m/s 732 mmHg 66%
16:00 +16°C° 1.2 mm 5 m/s 732 mmHg 70%
17:00 +17°C° 1.2 mm 4 m/s 732 mmHg 74%
18:00 +15°C° 0.3 mm 4 m/s 732 mmHg 77%
19:00 +14°C° 0.3 mm 3 m/s 733 mmHg 80%
20:00 +13°C° 0.3 mm 3 m/s 733 mmHg 83%
21:00 +13°C° 0.1 mm 3 m/s 733 mmHg 84%
22:00 +13°C° 0.1 mm 3 m/s 733 mmHg 85%
23:00 +14°C° 0.1 mm 2 m/s 733 mmHg 85%

Mâine, 2 Octombrie, Vineri

Timp Temperatura Precipitaţii Vânt Presiune Umiditate
00:00 +12°C° 0 mm 3 m/s 733 mmHg 88%
01:00 +12°C° 0 mm 3 m/s 733 mmHg 91%
02:00 +11°C° 0 mm 3 m/s 734 mmHg 93%
03:00 +11°C° 0 mm 3 m/s 734 mmHg 95%
04:00 +11°C° 0 mm 3 m/s 734 mmHg 96%
05:00 +11°C° 0 mm 3 m/s 734 mmHg 97%
06:00 +11°C° 0 mm 4 m/s 734 mmHg 95%
07:00 +12°C° 0 mm 4 m/s 735 mmHg 94%
08:00 +13°C° 0 mm 4 m/s 735 mmHg 92%
09:00 +14°C° 0 mm 4 m/s 735 mmHg 86%
10:00 +15°C° 0 mm 4 m/s 735 mmHg 80%
11:00 +17°C° 0 mm 4 m/s 736 mmHg 74%
12:00 +17°C° 0 mm 4 m/s 736 mmHg 70%
13:00 +18°C° 0 mm 4 m/s 736 mmHg 66%
14:00 +19°C° 0 mm 4 m/s 736 mmHg 62%
15:00 +18°C° 0 mm 3 m/s 736 mmHg 64%
16:00 +18°C° 0 mm 3 m/s 736 mmHg 66%
17:00 +17°C° 0 mm 2 m/s 736 mmHg 68%
18:00 +16°C° 0 mm 2 m/s 737 mmHg 71%
19:00 +15°C° 0 mm 2 m/s 737 mmHg 74%
20:00 +14°C° 0 mm 2 m/s 737 mmHg 76%
21:00 +14°C° 0 mm 2 m/s 738 mmHg 76%
22:00 +13°C° 0 mm 3 m/s 738 mmHg 77%
23:00 +13°C° 0 mm 3 m/s 738 mmHg 77%

Poimâine, 3 Octombrie, Sâmbătă

Timp Temperatura Precipitaţii Vânt Presiune Umiditate
00:00 +12°C° 0 mm 3 m/s 738 mmHg 78%
01:00 +12°C° 0 mm 3 m/s 738 mmHg 80%
02:00 +12°C° 0 mm 3 m/s 738 mmHg 81%
03:00 +12°C° 0 mm 3 m/s 738 mmHg 84%
04:00 +12°C° 0 mm 3 m/s 739 mmHg 88%
05:00 +12°C° 0 mm 3 m/s 739 mmHg 91%
06:00 +12°C° 0 mm 3 m/s 739 mmHg 88%
07:00 +13°C° 0 mm 4 m/s 739 mmHg 85%
08:00 +14°C° 0 mm 4 m/s 739 mmHg 82%
09:00 +17°C° 0 mm 4 m/s 739 mmHg 74%
10:00 +19°C° 0 mm 4 m/s 740 mmHg 66%
11:00 +20°C° 0 mm 4 m/s 740 mmHg 58%
12:00 +21°C° 0 mm 5 m/s 740 mmHg 55%
13:00 +22°C° 0 mm 5 m/s 740 mmHg 51%
14:00 +23°C° 0 mm 5 m/s 739 mmHg 48%
15:00 +22°C° 0 mm 4 m/s 739 mmHg 53%
16:00 +22°C° 0 mm 4 m/s 739 mmHg 57%
17:00 +21°C° 0 mm 3 m/s 739 mmHg 62%
18:00 +20°C° 0 mm 4 m/s 739 mmHg 63%
19:00 +19°C° 0 mm 5 m/s 740 mmHg 64%
20:00 +19°C° 0 mm 6 m/s 740 mmHg 65%
21:00 +17°C° 0 mm 6 m/s 740 mmHg 67%
22:00 +17°C° 0 mm 6 m/s 740 mmHg 69%
23:00 +17°C° 0 mm 5 m/s 740 mmHg 72%

4 Octombrie, Duminică

Timp Temperatura Precipitaţii Vânt Presiune Umiditate
00:00 +16°C° 0 mm 5 m/s 740 mmHg 74%
01:00 +15°C° 0 mm 5 m/s 740 mmHg 77%
02:00 +15°C° 0 mm 5 m/s 740 mmHg 80%
03:00 +15°C° 0 mm 5 m/s 740 mmHg 82%
04:00 +15°C° 0 mm 6 m/s 740 mmHg 84%
05:00 +14°C° 0 mm 6 m/s 741 mmHg 86%
06:00 +15°C° 0 mm 6 m/s 741 mmHg 81%
07:00 +16°C° 0 mm 7 m/s 741 mmHg 77%
08:00 +16°C° 0 mm 8 m/s 741 mmHg 73%
09:00 +18°C° 0 mm 8 m/s 741 mmHg 66%
10:00 +20°C° 0 mm 8 m/s 741 mmHg 59%
11:00 +22°C° 0 mm 8 m/s 741 mmHg 52%
12:00 +23°C° 0 mm 8 m/s 741 mmHg 50%
13:00 +23°C° 0 mm 8 m/s 741 mmHg 48%
14:00 +24°C° 0 mm 8 m/s 741 mmHg 46%
15:00 +23°C° 0 mm 7 m/s 741 mmHg 49%
16:00 +22°C° 0 mm 6 m/s 741 mmHg 53%
17:00 +21°C° 0 mm 5 m/s 741 mmHg 56%
18:00 +20°C° 0 mm 5 m/s 741 mmHg 59%
19:00 +19°C° 0 mm 5 m/s 741 mmHg 62%
20:00 +17°C° 0 mm 6 m/s 742 mmHg 65%
21:00 +17°C° 0 mm 6 m/s 742 mmHg 67%
22:00 +16°C° 0 mm 6 m/s 742 mmHg 69%
23:00 +16°C° 0 mm 6 m/s 742 mmHg 71%

5 Octombrie, Luni

Timp Temperatura Precipitaţii Vânt Presiune Umiditate
00:00 +15°C° 0 mm 6 m/s 741 mmHg 73%
01:00 +15°C° 0 mm 6 m/s 741 mmHg 75%
02:00 +15°C° 0 mm 6 m/s 741 mmHg 77%
03:00 +14°C° 0 mm 6 m/s 741 mmHg 77%
04:00 +14°C° 0 mm 6 m/s 742 mmHg 77%
05:00 +14°C° 0 mm 6 m/s 742 mmHg 77%
06:00 +14°C° 0 mm 7 m/s 742 mmHg 74%
07:00 +15°C° 0 mm 7 m/s 742 mmHg 70%
08:00 +15°C° 0 mm 8 m/s 742 mmHg 66%
09:00 +17°C° 0 mm 8 m/s 742 mmHg 59%
10:00 +20°C° 0 mm 8 m/s 742 mmHg 52%
11:00 +21°C° 0 mm 9 m/s 742 mmHg 45%
12:00 +22°C° 0 mm 9 m/s 742 mmHg 41%
13:00 +22°C° 0 mm 8 m/s 742 mmHg 37%
14:00 +23°C° 0 mm 8 m/s 742 mmHg 34%
15:00 +22°C° 0 mm 7 m/s 742 mmHg 37%
16:00 +21°C° 0 mm 6 m/s 742 mmHg 41%
17:00 +20°C° 0 mm 5 m/s 742 mmHg 44%
18:00 +19°C° 0 mm 5 m/s 742 mmHg 47%
19:00 +17°C° 0 mm 5 m/s 742 mmHg 49%
20:00 +16°C° 0 mm 5 m/s 742 mmHg 51%
21:00 +16°C° 0 mm 6 m/s 742 mmHg 50%
22:00 +15°C° 0 mm 6 m/s 743 mmHg 49%
23:00 +15°C° 0 mm 6 m/s 743 mmHg 48%

6 Octombrie, Marţi

Timp Temperatura Precipitaţii Vânt Presiune Umiditate
00:00 +15°C° 0 mm 6 m/s 743 mmHg 51%
01:00 +14°C° 0 mm 6 m/s 742 mmHg 54%
02:00 +14°C° 0 mm 6 m/s 742 mmHg 57%
03:00 +14°C° 0 mm 6 m/s 742 mmHg 56%
04:00 +12°C° 0 mm 7 m/s 742 mmHg 55%
05:00 +12°C° 0 mm 7 m/s 742 mmHg 55%
06:00 +14°C° 0 mm 7 m/s 742 mmHg 51%
07:00 +14°C° 0 mm 7 m/s 742 mmHg 48%
08:00 +15°C° 0 mm 8 m/s 742 mmHg 45%
09:00 +16°C° 0 mm 8 m/s 742 mmHg 42%
10:00 +18°C° 0 mm 8 m/s 743 mmHg 38%
11:00 +19°C° 0 mm 9 m/s 743 mmHg 35%
12:00 +21°C° 0 mm 9 m/s 743 mmHg 34%
13:00 +21°C° 0 mm 9 m/s 742 mmHg 33%
14:00 +22°C° 0 mm 9 m/s 742 mmHg 32%
15:00 +21°C° 0 mm 8 m/s 742 mmHg 33%
16:00 +20°C° 0 mm 7 m/s 742 mmHg 35%
17:00 +19°C° 0 mm 6 m/s 741 mmHg 36%
18:00 +19°C° 0 mm 6 m/s 742 mmHg 39%
19:00 +17°C° 0 mm 6 m/s 742 mmHg 41%
20:00 +16°C° 0 mm 6 m/s 742 mmHg 44%
21:00 +15°C° 0 mm 6 m/s 742 mmHg 45%
22:00 +15°C° 0 mm 6 m/s 742 mmHg 47%
23:00 +14°C° 0 mm 6 m/s 742 mmHg 48%
Arată mai mult

We Need Your Consent

Meteoprog and our Service Providers may store and access personal data such as cookies, device identifiers or other similar technologies on your device and process such data to personalise content and ads, as well as provide social media features and to analyse the traffic.

  • Store and/or access information on your device

    Cookies, device identifiers or other information can be stored or accessed on your device for the purposes indicated above.

  • Personalised ads and content, ad and content measurement, audience insights, and products development

    Ads and content can be personalised based on a profile. More data can be added to better personalise ads and content. Ad and content performance can be measured. Insights about the audience who saw the ads and content can be derived. Such data can be used to develop or improve user’s experience, systems and software.

By clicking ‘I Agree’ you will allow the use of indicated cookies, device identifiers, web beacons or other similar technologies. Your settings can be changed in the browser on your device.

For certain purposes, legitimate interests may be relied on, rather than consent. You can read more about this in our Privacy and Cookie Policy.